Tracking 19832 objects as of 24-Aug-2019
HD Live streaming from Space Station
objects crossing your sky now

COSMOS 2251 DEB

Track COSMOS 2251 DEB now!
10-day predictions


NORAD ID: 38200
Int'l Code: 1993-036BSQ
Perigee: 513.2 km
Apogee: 631.1 km
Inclination: 74.1 °
Period: 96.0 minutes
Semi major axis: 6943 km
RCS: 0.003 m2 (small)
Launch date: June 16, 1993
Source: Commonwealth of Independent States (former USSR) (CIS)
Launch site: PLESETSK MISSILE AND SPACE COMPLEX (PKMTR)

Note: This is SATELLITE DEBRIS
aabbcc
Your satellite tracking list
Your tracking list is empty




NASA's NSSDC Master Catalog

Two Line Element Set (TLE):
1 38200U 93036BSQ 19234.31282564 +.00002145 +00000-0 +16060-3 0  9992
2 38200 074.0587 099.9846 0084904 341.9483 017.8693 15.00623382121646
Source of the keplerian elements: AFSPC